Location: Home
(42.5358°N, 72.7383°W)
Time: 12:49:48
(UTC-05:00)

Transit 4A - Pass Details

Date: 07 December 2021
Orbit: 863 x 981 km, 66.8° (Epoch: 26 January)

Event Time Altitude Azimuth Distance (km) Brightness Sun altitude
Rises 20:46:24 0° 278° (W) 3,496 11.6 -48.5°
Enters shadow 20:50:08 - 303° (WNW) 2,673 10.8 -49.2°
Reaches altitude 10° 20:50:46 10° 309° (NW) 2,587 - -49.3°
Maximum altitude 20:53:02 12° 331° (NNW) 2,453 - -49.7°
Drops below altitude 10° 20:55:19 10° 354° (N) 2,622 - -50.1°
Sets 20:59:50 0° 24° (NNE) 3,600 - -50.9°
